Wind_Speed
34 37 39 38 39 43 45 45 46 44 42 49 53 56 54 51 53 55 50 46 43 41 32 30 30 32 37 37 36 34 31 29 32 32 35 38 36 32 29 29 29 31 32 33
43 51 47 42 44 44 43 46 48 52 47 49 53 59 57 56 56 54 51 46 40 38 34 35 30 32 36 34 31 31 29 29 30 32 31 34 33 30 29 29 26 24 25 28
51 51 42 39 42 39 50 46 53 53 48 49 53 64 60 50 47 44 42 39 37 34 28 19 19 27 28 28 27 23 24 26 28 30 32 31 31 31 27 18 13 14 20 26
44 44 42 40 46 44 58 49 51 47 38 33 34 40 48 55 50 42 36 31 22 25 17 18 20 23 27 23 22 24 23 25 28 29 28 26 27 24 19 15 13 14 20 24
43 38 39 37 42 30 44 37 40 42 43 39 25 20 36 36 38 25 13 10 26 19 28 31 28 29 29 25 22 25 26 27 24 24 26 26 28 27 19 15 15 16 17 24
39 37 43 40 39 39 34 31 34 37 33 19 26 25 52 15 16 11 21 34 30 33 35 28 31 31 30 27 26 21 20 21 18 23 23 25 29 24 22 22 20 18 21 22
39 42 41 35 34 37 39 37 8 5 4 13 20 26 49 38 37 30 31 39 35 34 31 31 34 31 30 25 24 21 21 19 13 17 22 25 26 28 28 25 23 21 22 22
32 41 34 34 31 33 33 35 21 7 9 22 29 23 41 39 37 41 29 27 33 36 30 27 34 29 29 24 18 19 21 17 12 17 22 25 28 27 27 25 24 21 23 24
28 45 42 41 37 32 34 28 40 30 34 8 34 46 54 41 15 22 24 18 25 24 22 24 28 29 28 22 16 17 15 16 22 24 23 27 31 29 25 24 27 26 24 26
31 28 44 32 26 34 35 34 17 14 5 8 20 28 38 37 24 16 22 17 19 14 20 19 21 24 21 18 13 12 18 23 30 28 28 31 33 32 33 31 29 30 28 29
26 23 43 34 32 34 31 36 37 30 21 12 16 27 45 40 38 31 21 30 39 31 24 22 16 14 12 18 20 22 27 36 28 26 28 35 36 37 37 35 34 35 35 34
31 24 25 47 41 28 30 31 38 27 19 26 18 21 56 53 60 54 47 39 26 28 22 16 19 24 26 32 39 40 38 40 35 38 44 41 37 37 41 41 40 41 39 38
35 32 29 24 36 45 56 48 36 38 39 37 25 32 50 55 63 49 55 52 49 48 51 52 45 43 46 55 61 52 51 50 41 41 40 42 44 43 43 45 44 44 44 44
41 46 44 31 37 33 19 34 41 44 37 39 41 47 56 62 59 51 60 67 67 58 47 53 52 44 48 51 43 44 42 43 45 41 42 49 51 50 48 48 46 45 44 49
40 50 49 59 57 54 61 62 64 54 60 58 65 60 55 65 66 68 77 71 68 70 61 61 55 48 50 42 38 45 47 47 49 50 48 50 53 52 49 47 48 48 50 50
28 28 48 55 63 69 64 64 68 69 68 71 63 61 71 73 72 79 70 59 60 55 50 50 62 59 49 45 48 47 47 48 51 49 49 48 51 51 50 48 49 50 51 52
52 44 43 37 28 44 40 53 61 74 68 64 58 66 47 53 51 51 53 53 47 44 49 53 53 55 56 53 48 46 48 47 52 53 57 56 53 49 48 49 50 51 51 48
57 53 43 48 44 28 42 40 31 38 44 54 42 33 32 40 50 55 48 46 51 54 51 53 58 58 50 48 44 40 37 43 49 50 52 52 52 50 46 44 43 44 46 44
42 44 37 32 41 42 42 36 29 29 28 22 19 21 19 18 32 28 41 39 37 41 40 44 50 50 50 39 32 36 40 39 41 45 44 43 42 39 37 40 41 42 40 35
25 22 28 36 14 12 13 26 29 27 23 17 17 30 34 34 30 22 23 25 26 28 29 32 39 41 40 33 29 29 31 34 32 30 31 33 33 35 39 37 37 37 38 36
24 26 29 34 34 30 27 36 44 14 19 45 35 41 50 53 50 51 53 45 52 51 47 42 33 29 26 30 27 29 31 36 36 34 33 35 35 35 36 35 38 40 41 42
21 17 18 13 19 18 28 36 35 40 37 40 47 45 51 52 54 52 59 63 64 64 61 60 55 37 29 23 26 31 26 27 40 42 40 39 39 42 43 42 41 41 42 42
23 22 23 18 29 38 44 44 39 35 43 41 45 46 51 54 52 49 51 52 58 56 59 58 57 59 58 59 56 35 30 31 28 36 39 38 38 39 45 49 51 51 47 46
31 30 35 37 41 39 38 36 36 41 45 48 48 49 51 49 47 45 44 48 51 55 56 55 57 61 67 63 58 61 57 56 45 38 38 42 42 44 49 50 48 51 54 52
38 36 38 41 42 40 41 36 41 46 48 48 47 47 45 48 50 51 54 53 50 49 50 54 54 55 58 51 47 50 55 55 56 55 50 43 42 41 42 42 38 37 33 36
43 42 41 47 43 42 43 43 46 46 44 41 44 45 46 49 52 52 53 54 57 57 55 51 48 50 51 51 51 47 43 46 49 54 54 51 49 48 47 45 45 49 50 49
Wind_Direction
274 264 259 272 278 284 282 279 278 280 283 283 284 286 290 293 291 291 290 291 290 287 299 291 284 268 265 266 264 264 261 255 257 258 255 251 250 253 252 256 260 265 270 275
268 265 274 281 278 278 277 277 277 283 286 284 288 286 288 288 289 290 291 289 288 289 292 290 279 260 261 265 263 262 259 251 254 255 252 244 243 245 242 247 255 267 275 279
267 270 277 274 273 274 274 274 280 283 291 286 287 284 287 290 289 291 293 294 293 298 285 268 271 267 264 270 269 258 254 246 248 246 245 239 233 229 232 239 255 272 278 278
274 277 274 273 269 271 273 282 282 284 284 282 289 291 288 291 293 294 299 301 297 304 259 277 287 278 275 272 273 260 251 249 245 247 243 239 233 228 220 230 256 283 292 290
270 274 271 270 276 277 278 281 278 280 284 290 287 271 291 292 290 305 307 283 304 291 296 278 278 278 274 270 277 259 260 248 243 247 237 233 227 219 223 246 263 279 293 297
275 277 272 275 280 275 273 270 271 276 279 273 279 255 292 272 302 295 300 297 297 298 295 262 274 277 280 281 273 264 262 244 252 242 247 245 233 226 244 261 268 282 289 294
283 277 278 280 276 269 263 260 268 265 185 252 278 261 263 284 295 299 296 299 295 293 281 266 274 283 285 279 256 267 252 238 244 264 266 257 251 253 260 263 278 287 290 298
280 291 283 280 276 287 276 254 220 207 252 272 275 254 273 286 290 301 300 301 289 289 276 266 267 277 282 275 257 268 242 232 258 265 255 253 255 258 263 274 278 290 297 298
272 272 278 281 283 278 271 249 269 245 254 286 268 271 279 287 282 298 294 330 300 270 266 270 267 272 271 254 247 257 226 283 289 278 256 251 255 257 259 275 278 283 288 291
252 268 276 280 276 266 258 264 245 208 200 247 266 271 273 285 279 261 288 308 322 325 269 272 261 268 267 255 233 234 279 285 283 269 257 258 260 263 257 268 274 278 280 284
266 258 263 279 270 270 267 249 246 252 245 253 258 265 274 275 273 279 263 308 311 300 280 266 248 244 236 266 279 278 292 303 282 263 271 267 265 264 261 269 270 272 275 277
267 267 259 269 261 258 250 260 256 241 245 251 263 265 271 278 275 271 285 298 272 290 278 267 262 268 271 285 291 286 288 285 282 272 267 266 254 257 265 266 265 266 269 271
277 275 278 270 282 268 249 249 254 256 257 244 244 262 281 284 282 277 269 291 296 284 263 272 277 273 280 286 287 283 286 284 273 273 262 253 255 261 260 257 260 263 264 266
280 268 254 253 253 260 235 247 254 264 255 259 247 257 272 277 279 276 287 293 297 293 274 277 275 272 285 296 282 276 265 266 276 263 257 253 256 257 261 255 252 253 257 260
274 261 258 263 259 258 263 269 269 257 261 258 262 262 263 271 269 279 286 289 292 293 284 283 287 292 291 287 275 263 270 266 274 268 262 258 259 260 254 252 248 250 252 252
278 297 271 261 262 263 258 262 263 262 264 263 263 265 270 273 268 285 288 292 290 290 284 279 281 281 286 283 279 268 264 265 269 266 262 261 259 253 252 251 248 250 252 252
283 286 290 283 284 294 288 284 276 261 268 264 266 274 278 276 274 277 286 286 286 282 281 277 276 275 279 281 273 265 257 262 267 267 263 260 260 253 252 252 250 249 252 253
277 280 279 279 287 269 292 270 283 273 279 278 275 280 275 265 263 262 262 271 273 273 270 274 279 281 279 279 278 262 256 264 263 264 264 258 254 253 250 249 251 250 250 250
274 274 270 262 268 275 273 286 295 291 287 268 271 268 265 269 252 256 250 254 260 263 267 272 276 275 279 277 274 257 254 259 262 263 263 255 248 241 241 246 247 247 247 240
256 257 282 288 294 284 287 289 285 273 255 357 330 329 325 313 302 272 269 288 280 271 268 271 267 269 269 265 263 254 251 252 255 256 250 239 231 238 243 244 242 240 239 240
286 283 272 274 276 277 272 284 294 302 293 319 315 313 312 314 319 306 305 296 307 305 303 291 272 273 266 252 246 248 249 251 249 240 230 227 231 234 234 238 242 245 244 239
298 292 294 297 275 263 257 289 316 311 310 311 314 313 312 313 313 312 310 307 306 305 306 304 296 276 276 271 252 239 239 250 247 249 239 233 234 235 234 237 243 248 249 246
273 271 269 264 265 271 286 307 309 305 311 310 309 313 310 309 310 310 309 307 305 305 305 305 294 292 292 297 300 282 263 269 252 237 236 236 234 236 241 242 242 242 245 247
279 287 279 286 290 298 302 302 305 304 307 309 309 310 310 309 309 307 302 301 299 299 302 302 300 296 292 294 291 290 296 297 285 263 244 238 240 244 247 248 246 248 247 245
280 282 286 288 294 297 300 298 299 304 303 303 304 306 308 308 306 307 304 301 301 299 298 298 297 295 294 295 293 286 280 278 282 284 280 268 262 255 249 245 249 255 261 255
278 280 286 285 294 298 294 298 303 302 301 301 302 304 301 302 303 303 302 302 301 299 299 292 289 292 294 291 287 282 276 265 264 269 270 271 271 271 272 273 276 279 277 273
Height
3133 3128 3127 3132 3132 3129 3126 3122 3118 3119 3122 3112 3105 3098 3099 3103 3100 3096 3096 3094 3092 3090 3089 3087 3087 3085 3082 3082 3082 3083 3082 3083 3082 3082 3083 3085 3089 3093 3095 3096 3097 3097 3097 3096
3124 3113 3122 3126 3124 3122 3120 3114 3110 3106 3112 3108 3098 3085 3089 3090 3088 3087 3085 3083 3081 3079 3078 3077 3076 3074 3072 3072 3073 3073 3073 3074 3075 3075 3076 3076 3081 3085 3087 3089 3090 3090 3090 3089
3111 3111 3118 3117 3114 3114 3107 3108 3102 3099 3103 3098 3090 3069 3074 3077 3076 3077 3076 3074 3072 3069 3065 3065 3066 3065 3064 3064 3063 3064 3065 3065 3066 3066 3066 3069 3072 3075 3079 3081 3082 3083 3082 3082
3101 3103 3104 3106 3105 3109 3092 3104 3100 3097 3097 3087 3089 3041 3063 3065 3063 3065 3065 3065 3063 3062 3059 3059 3059 3059 3058 3058 3057 3057 3056 3057 3057 3059 3061 3064 3067 3071 3074 3074 3074 3074 3074 3074
3092 3095 3095 3092 3093 3101 3087 3098 3097 3093 3088 3082 3078 3076 3042 3055 3053 3054 3054 3057 3058 3058 3056 3053 3051 3050 3049 3050 3050 3050 3049 3048 3050 3053 3055 3058 3061 3064 3066 3066 3066 3065 3065 3067
3086 3088 3086 3085 3087 3088 3089 3085 3088 3088 3086 3069 3075 3076 3014 3045 3049 3050 3051 3050 3048 3047 3046 3045 3044 3042 3042 3042 3042 3042 3043 3044 3046 3048 3050 3052 3055 3057 3058 3058 3058 3057 3057 3059
3083 3078 3078 3081 3081 3079 3082 3080 3080 3081 3081 3064 3059 3060 3039 3048 3048 3046 3044 3041 3039 3037 3035 3038 3038 3036 3034 3033 3034 3035 3036 3038 3041 3043 3046 3048 3049 3050 3050 3050 3050 3051 3050 3049
3075 3064 3072 3073 3075 3074 3073 3072 3069 3074 3063 3049 3053 3035 3030 3041 3041 3038 3037 3034 3030 3029 3027 3026 3031 3031 3028 3027 3027 3029 3030 3032 3034 3036 3037 3039 3040 3041 3042 3043 3043 3041 3042 3042
3069 3061 3067 3069 3068 3071 3065 3060 3060 3054 3051 3050 3033 3024 3028 3032 3033 3029 3030 3027 3019 3016 3022 3020 3022 3024 3022 3022 3022 3023 3026 3028 3028 3027 3028 3028 3032 3032 3033 3033 3034 3033 3033 3034
3058 3057 3054 3059 3060 3056 3058 3059 3053 3048 3049 3046 3031 3022 3016 3025 3026 3021 3020 3022 3018 3013 3015 3016 3014 3017 3017 3018 3017 3018 3020 3021 3021 3019 3021 3021 3021 3023 3022 3023 3024 3024 3025 3024
3052 3051 3045 3048 3046 3048 3050 3046 3041 3038 3033 3025 3025 3019 3020 3018 3015 3016 3015 3016 3015 3013 3013 3010 3009 3009 3012 3013 3013 3012 3012 3011 3011 3011 3012 3012 3012 3011 3011 3012 3012 3014 3014 3015
3046 3041 3037 3035 3039 3038 3035 3034 3033 3027 3021 3019 3015 3012 3005 3008 3006 3007 3010 3009 3012 3014 3010 3008 3006 3004 3005 3006 3005 3004 3003 3002 3003 3003 3003 3003 3002 3002 3000 3001 3001 3003 3002 3002
3038 3033 3026 3026 3027 3022 3019 3018 3020 3017 3011 3002 3002 2997 3000 2998 2992 2990 2995 2997 3000 3003 3002 3001 2998 2997 2996 2995 2994 2994 2991 2988 2990 2990 2990 2989 2989 2990 2991 2989 2990 2991 2990 2990
3030 3021 3016 3008 3009 3012 3008 3006 3008 3006 3001 2994 2988 2984 2987 2984 2981 2977 2982 2982 2985 2987 2987 2987 2986 2984 2985 2983 2980 2979 2978 2977 2977 2976 2976 2974 2974 2977 2978 2975 2976 2977 2978 2977
3018 3005 3003 2993 2994 2997 2996 2996 2994 2988 2984 2979 2974 2972 2978 2976 2971 2969 2971 2973 2975 2971 2969 2970 2971 2968 2966 2967 2966 2966 2963 2962 2962 2961 2958 2957 2959 2960 2963 2958 2961 2963 2963 2964
3002 2993 2989 2977 2978 2977 2976 2979 2975 2971 2966 2963 2963 2961 2965 2964 2963 2961 2960 2963 2962 2960 2952 2948 2948 2949 2948 2951 2952 2950 2946 2945 2945 2944 2943 2944 2942 2943 2946 2944 2945 2948 2947 2948
2993 2990 2984 2972 2975 2970 2963 2965 2957 2953 2957 2956 2952 2949 2948 2947 2950 2950 2947 2941 2941 2939 2935 2931 2930 2929 2932 2933 2931 2927 2930 2927 2925 2926 2927 2926 2928 2930 2930 2930 2929 2931 2933 2935
2982 2978 2978 2966 2968 2954 2953 2954 2949 2945 2948 2946 2938 2928 2929 2931 2937 2931 2930 2926 2923 2921 2919 2915 2912 2912 2913 2913 2914 2909 2906 2906 2908 2907 2910 2910 2912 2914 2915 2915 2916 2917 2918 2921
2972 2969 2962 2960 2949 2942 2947 2948 2940 2941 2939 2929 2922 2919 2917 2918 2915 2917 2911 2911 2909 2905 2904 2902 2898 2895 2895 2898 2897 2895 2893 2892 2892 2892 2895 2897 2900 2901 2901 2902 2904 2905 2907 2908
2961 2961 2958 2950 2945 2935 2934 2935 2934 2931 2927 2918 2915 2915 2909 2906 2901 2891 2895 2893 2891 2890 2891 2890 2887 2886 2884 2885 2883 2883 2883 2882 2882 2883 2884 2885 2889 2890 2889 2890 2893 2895 2896 2897
2947 2944 2942 2940 2936 2932 2927 2925 2924 2924 2915 2906 2913 2911 2912 2905 2895 2887 2883 2883 2882 2881 2878 2876 2873 2873 2873 2871 2869 2870 2872 2872 2870 2869 2869 2871 2873 2876 2878 2878 2879 2882 2884 2885
2942 2942 2938 2935 2930 2923 2923 2920 2923 2915 2909 2908 2901 2894 2890 2886 2881 2879 2871 2869 2869 2868 2867 2865 2861 2860 2861 2859 2857 2853 2854 2857 2856 2855 2856 2857 2859 2861 2862 2865 2866 2868 2870 2871
2935 2934 2930 2929 2921 2919 2916 2915 2910 2904 2901 2898 2893 2887 2882 2876 2873 2867 2858 2861 2860 2859 2854 2851 2850 2846 2848 2845 2845 2841 2842 2840 2841 2841 2842 2842 2844 2847 2848 2850 2850 2851 2854 2856
2924 2924 2918 2917 2913 2911 2909 2907 2903 2897 2892 2887 2882 2877 2871 2864 2858 2853 2853 2852 2850 2846 2841 2836 2833 2830 2829 2827 2830 2832 2829 2827 2826 2827 2827 2827 2828 2831 2833 2834 2835 2836 2836 2837
2915 2912 2908 2904 2902 2902 2898 2897 2892 2887 2882 2876 2872 2868 2861 2854 2850 2846 2843 2841 2839 2835 2831 2825 2820 2816 2812 2809 2811 2812 2813 2814 2814 2812 2812 2811 2812 2814 2815 2816 2819 2821 2823 2822
2903 2901 2899 2890 2893 2891 2886 2884 2880 2874 2869 2865 2859 2855 2853 2847 2841 2837 2833 2828 2821 2815 2812 2809 2806 2799 2795 2793 2795 2797 2796 2794 2793 2794 2795 2795 2796 2800 2801 2800 2803 2806 2808 2809